[[{"header":{"parameterUnit":"m.s-1","parameterCategory":1,"la1":30.2991,"la2":30.254,"lo1":-89.0895,"lo2":-89.0444,"dy":0.0017,"dx":0.0017,"nx":28,"ny":28,"refTime":"2026-02-02T03:00:00:Z","depth":0,"parameterNumber":2,"parameterNumberName":"U-component_of_WINDS"},"data":[0,0,0,0,0,0,0,0,0,0,0,0,0,0,0,0,0,0,0,0,0,0,0,0,0,0,0,0,0,0,0,0,0,0,0,0,0,0,0,0,0,0,0,0,0,0,0,0,0,0,0,0,0,0,0,0,0,0,1.2169,1.217,0,1.224,1.2241,1.2242,1.2264,1.2264,1.2264,1.2263,1.2337,1.2339,1.2341,0,0,0,0,0,0,0,0,0,0,0,0,0,1.2051,1.2053,1.2169,1.217,1.217,1.224,1.2241,1.2242,1.2264,1.2264,1.2264,1.2263,1.2336,1.2339,1.2342,0,0,0,0,0,0,0,0,0,0,0,0,0,1.211,1.2054,1.2169,1.219,1.2193,1.224,1.2241,1.2242,1.2264,1.2264,1.2263,1.2263,1.2335,1.2339,1.2342,1.2373,0,0,1.2352,1.2354,0,0,0,0,0,0,0,0,1.2107,1.2115,1.2186,1.2189,1.2192,1.2243,1.2227,1.2286,1.2265,1.2237,1.2263,1.2263,1.2306,1.2312,1.2326,1.2376,1.2379,1.2353,1.2355,1.2356,1.2357,0,0,0,0,0,0,0,1.2103,1.2112,1.2197,1.2187,1.2191,1.2196,1.2204,1.2238,1.2274,1.224,1.2241,1.2249,1.2307,1.2323,1.2328,1.2381,1.2353,1.2356,1.2358,1.2359,1.2458,1.2458,0,0,0,0,0,0,1.2095,1.2108,1.2195,1.2199,1.2147,1.2198,1.2207,1.2227,1.2273,1.228,1.225,1.225,1.2317,1.2324,1.2331,1.2369,1.2356,1.2359,1.2361,1.2457,1.2458,1.2458,0,0,0,0,0,0,1.2093,1.2103,1.2192,1.2154,1.2166,1.2201,1.2223,1.2229,1.2244,1.2281,1.2287,1.2259,1.2317,1.2326,1.2362,1.2372,1.2361,1.2364,1.2456,1.2457,1.2458,1.2446,0,0,0,0,0,0,1.2089,1.2102,1.2114,1.2154,1.2168,1.2222,1.2224,1.223,1.225,1.2251,1.2291,1.2298,1.2318,1.2357,1.2365,1.2376,1.2367,1.2456,1.2457,1.2458,1.2446,1.2447,1.2447,0,0,0,0,0,1.2085,1.2108,1.2115,1.2125,1.2184,1.2222,1.223,1.2252,1.225,1.2263,1.2286,1.2296,1.2369,1.236,1.237,1.2382,1.2455,1.2457,1.2458,1.2446,1.2447,1.2447,0,0,0,0,0,0,1.2069,1.2114,1.2122,1.2159,1.2186,1.2226,1.2243,1.2253,1.2282,1.2282,1.2308,1.2317,1.2351,1.237,1.2359,1.2414,1.2413,1.2416,1.24,1.2401,1.2402,1.2396,1.2369,0,0,0,0,0,1.207,1.2097,1.2135,1.2164,1.2178,1.2208,1.2225,1.224,1.227,1.2282,1.2308,1.2336,1.2366,1.2384,1.2414,1.2449,1.2457,1.2462,1.2463,1.2463,1.2466,1.2484,1.2486,1.2463,1.2463,1.2463,0,0,1.2072,1.21,1.2116,1.2162,1.2185,1.2212,1.2217,1.2247,1.2267,1.2286,1.2321,1.2341,1.2375,1.241,1.2427,1.2427,1.2474,1.2465,1.2465,1.2467,1.2486,1.2488,1.249,1.2464,1.2463,1.2463,0,0,1.209,1.2114,1.214,1.2163,1.2198,1.2217,1.2223,1.2261,1.2275,1.231,1.2325,1.2349,1.2399,1.2422,1.2441,1.2465,1.2475,1.2473,1.2477,1.2495,1.2497,1.2499,1.2506,1.2509,1.2476,1.2476,1.2476,0,1.2088,1.213,1.2152,1.218,1.22,1.2217,1.2244,1.2265,1.2307,1.232,1.232,1.2382,1.2406,1.2446,1.2452,1.2466,1.2473,1.2469,1.2495,1.2497,1.2499,1.2506,1.2509,1.2475,1.2475,1.2475,1.2476,0,1.2125,1.2154,1.2171,1.2211,1.2232,1.2259,1.2285,1.2304,1.2316,1.2336,1.2371,1.24,1.2434,1.2445,1.2458,1.2486,1.2485,1.2489,1.2489,1.25,1.2508,1.2511,1.2475,1.2475,1.2475,1.2475,0,0,1.2136,1.2187,1.2193,1.2211,1.2249,1.2272,1.2299,1.2332,1.2347,1.2376,1.2399,1.244,1.2443,1.2464,1.2479,1.2495,1.2511,1.2497,1.2498,1.2498,1.2543,1.254,1.2543,1.2517,1.2518,1.2518,1.254,0,1.2158,1.2208,1.2228,1.2268,1.2294,1.2311,1.2334,1.236,1.2379,1.2403,1.2423,1.2452,1.2455,1.2467,1.2483,1.2505,1.252,1.2504,1.2539,1.254,1.253,1.2547,1.2544,1.2563,1.2543,1.2544,1.2544,0,1.2191,1.2219,1.2261,1.2296,1.2307,1.2328,1.236,1.2383,1.2412,1.2424,1.2446,1.246,1.2489,1.2486,1.2525,1.2513,1.2528,1.2541,1.2542,1.2547,1.2543,1.2551,1.257,1.2572,1.2549,1.2549,1.2549,0,1.2194,1.2242,1.2273,1.2288,1.2329,1.2343,1.2361,1.2389,1.2408,1.2435,1.2447,1.2477,1.2494,1.2516,1.2538,1.2534,1.2574,1.2573,1.2585,1.2584,1.2593,1.2592,1.2614,1.2603,1.2603,1.2603,1.2603,0,1.2217,1.2242,1.2275,1.2294,1.2322,1.2345,1.2372,1.2391,1.2416,1.2438,1.2454,1.2475,1.2502,1.2526,1.2543,1.2572,1.258,1.259,1.2594,1.2589,1.2587,1.2599,1.2598,1.2604,1.2603,1.2603,1.2603,0,1.2225,1.2248,1.2283,1.2318,1.2328,1.2347,1.2377,1.2396,1.2414,1.2442,1.245,1.2479,1.2508,1.2531,1.257,1.2581,1.2611,1.2616,1.2601,1.2603,1.2613,1.2612,1.2643,1.2648,1.2634,1.2634,1.2634,0,1.2238,1.2257,1.2294,1.2311,1.2328,1.2354,1.2372,1.2395,1.2413,1.2447,1.2461,1.2491,1.2517,1.2562,1.2586,1.2615,1.262,1.2629,1.2625,1.2618,1.262,1.2618,1.262,1.263,1.263,1.263,1.263,0,1.2258,1.2268,1.2294,1.2324,1.2345,1.2369,1.2394,1.2406,1.2433,1.2453,1.2482,1.2501,1.254,1.2569,1.26,1.2618,1.2628,1.2631,1.2635,1.263,1.262,1.2625,1.2602,1.263,1.263,1.263,1.263,1.263,1.2269,1.2287,1.2315,1.2343,1.2364,1.2386,1.2405,1.2425,1.245,1.2483,1.2494,1.2524,1.2552,1.2594,1.2612,1.2635,1.2636,1.2643,1.2644,1.2645,1.2644,1.2616,1.2641,1.2641,1.2641,1.2641,1.2641,0,1.2289,1.2308,1.2334,1.2367,1.2389,1.2396,1.2423,1.2441,1.2467,1.2492,1.2516,1.2549,1.2577,1.2602,1.2631,1.2645,1.2651,1.2652,1.2651,1.2655,1.2642,1.2635,1.2647,1.2647,1.2647,1.2647,1.2647,1.2647,1.2303,1.2333,1.2346,1.2386,1.2404,1.2434,1.2448,1.2469,1.2488,1.2524,1.2548,1.2564,1.2589,1.2619,1.2645,1.2652,1.2662,1.2662,1.267,1.2657,1.2656,1.2655,1.2649,1.2664,1.2664,1.2681,1.2681,1.2681]},{"header":{"parameterUnit":"m.s-1","parameterCategory":1,"la1":30.2991,"la2":30.254,"lo1":-89.0895,"lo2":-89.0444,"dy":0.0017,"dx":0.0017,"nx":28,"ny":28,"refTime":"2026-02-02T03:00:00:Z","depth":0,"parameterNumber":3,"parameterNumberName":"V-component_of_WINDS"},"data":[0,0,0,0,0,0,0,0,0,0,0,0,0,0,0,0,0,0,0,0,0,0,0,0,0,0,0,0,0,0,0,0,0,0,0,0,0,0,0,0,0,0,0,0,0,0,0,0,0,0,0,0,0,0,0,0,0,0,3.0496,3.0495,0,3.0446,3.0445,3.0445,3.0436,3.0437,3.0437,3.0438,3.038,3.0378,3.0376,0,0,0,0,0,0,0,0,0,0,0,0,0,3.0577,3.0576,3.0496,3.0495,3.0495,3.0446,3.0445,3.0444,3.0436,3.0437,3.0437,3.0438,3.038,3.0378,3.0376,0,0,0,0,0,0,0,0,0,0,0,0,0,3.0536,3.0576,3.0496,3.0485,3.0483,3.0446,3.0445,3.0444,3.0436,3.0437,3.0437,3.0438,3.0381,3.0378,3.0376,3.0344,0,0,3.0367,3.0365,0,0,0,0,0,0,0,0,3.0538,3.0533,3.0487,3.0485,3.0484,3.0448,3.0453,3.041,3.0436,3.0454,3.0438,3.0438,3.0402,3.0397,3.0386,3.0341,3.0339,3.0366,3.0364,3.0363,3.0362,0,0,0,0,0,0,0,3.0541,3.0535,3.0476,3.0486,3.0484,3.048,3.0475,3.0445,3.0424,3.0452,3.0452,3.0446,3.0401,3.0389,3.0385,3.0338,3.0366,3.0364,3.0362,3.0361,3.0263,3.0262,0,0,0,0,0,0,3.0547,3.0538,3.0477,3.0474,3.0513,3.0478,3.0472,3.0459,3.0425,3.042,3.0446,3.0446,3.0393,3.0388,3.0382,3.0342,3.0363,3.0361,3.0359,3.0264,3.0263,3.0262,0,0,0,0,0,0,3.0549,3.0542,3.0479,3.0506,3.0498,3.0476,3.0461,3.0457,3.0446,3.042,3.0415,3.0438,3.0394,3.0387,3.0354,3.034,3.0359,3.0357,3.0265,3.0263,3.0262,3.0262,0,0,0,0,0,0,3.0551,3.0543,3.0532,3.0506,3.0496,3.0454,3.046,3.0456,3.0441,3.0441,3.0411,3.0407,3.0394,3.0358,3.0351,3.0336,3.0354,3.0266,3.0264,3.0263,3.0263,3.0261,3.0259,0,0,0,0,0,3.0554,3.0533,3.0531,3.0524,3.0483,3.0453,3.0447,3.0435,3.044,3.0428,3.0411,3.0408,3.0343,3.0355,3.0346,3.0331,3.0267,3.0265,3.0263,3.0264,3.0262,3.0259,0,0,0,0,0,0,3.0556,3.0529,3.0527,3.0497,3.0478,3.0452,3.0436,3.0432,3.0409,3.041,3.0393,3.0387,3.0354,3.0339,3.0353,3.0298,3.0305,3.0301,3.0309,3.0306,3.0304,3.0308,3.0352,0,0,0,0,0,3.0553,3.0533,3.051,3.0485,3.0476,3.0458,3.0444,3.0437,3.0415,3.0406,3.0386,3.0363,3.0338,3.0321,3.0296,3.0261,3.0254,3.0247,3.0245,3.0243,3.024,3.0219,3.0215,3.0256,3.0256,3.0256,0,0,3.0546,3.0529,3.0517,3.0485,3.0469,3.0447,3.0451,3.0427,3.0409,3.0401,3.037,3.0355,3.0328,3.0293,3.0277,3.028,3.0227,3.0241,3.024,3.0237,3.0216,3.0212,3.0209,3.0254,3.0255,3.0255,0,0,3.0522,3.0508,3.0486,3.047,3.0447,3.0435,3.0429,3.0404,3.0394,3.0363,3.0356,3.0333,3.029,3.0271,3.0256,3.0224,3.0219,3.0216,3.0205,3.0185,3.0182,3.0179,3.0166,3.0162,3.0213,3.0213,3.0213,0,3.0516,3.0485,3.0474,3.0451,3.0436,3.043,3.0406,3.0391,3.0359,3.0348,3.0352,3.0297,3.0279,3.0239,3.0232,3.022,3.0211,3.0219,3.0184,3.018,3.0177,3.0165,3.0161,3.0213,3.0213,3.0213,3.0213,0,3.0478,3.0456,3.044,3.0412,3.0396,3.0372,3.0356,3.034,3.0334,3.0321,3.0287,3.0265,3.0235,3.0225,3.0218,3.0184,3.0186,3.0187,3.0194,3.0173,3.0162,3.0157,3.0213,3.0213,3.0213,3.0213,0,0,3.0453,3.042,3.0415,3.0401,3.0375,3.0356,3.0331,3.0304,3.029,3.0268,3.0246,3.0209,3.021,3.0192,3.0183,3.0165,3.014,3.0167,3.0166,3.0162,3.0099,3.0098,3.0093,3.0137,3.0136,3.0135,3.0101,0,3.0425,3.0384,3.0374,3.0337,3.0315,3.0309,3.0286,3.0266,3.0253,3.0231,3.0216,3.019,3.0193,3.0182,3.0165,3.0147,3.0127,3.0149,3.0113,3.0112,3.0119,3.0087,3.0086,3.0056,3.0097,3.0096,3.0095,0,3.0388,3.0367,3.0329,3.0305,3.0295,3.0276,3.025,3.0229,3.0205,3.0197,3.0178,3.017,3.0141,3.015,3.0109,3.0125,3.0109,3.0098,3.0096,3.0091,3.0102,3.008,3.0046,3.0041,3.0088,3.0089,3.0089,0,3.0372,3.0335,3.0307,3.0296,3.0267,3.0253,3.024,3.0218,3.0202,3.0178,3.0167,3.0139,3.0124,3.0102,3.0086,3.0094,3.0045,3.0053,3.0036,3.0036,3.0025,3.0026,2.9986,3.0017,3.0017,3.0017,3.0017,0,3.0342,3.0318,3.03,3.0282,3.0255,3.0243,3.0215,3.0201,3.0181,3.0159,3.0151,3.013,3.0111,3.0087,3.0074,3.0041,3.0034,3.0025,3.0021,3.0025,3.0026,3.0014,3.0015,3.0016,3.0016,3.0016,3.0016,0,3.032,3.0307,3.0276,3.0251,3.0244,3.0225,3.0203,3.0185,3.0172,3.0144,3.0137,3.0115,3.0086,3.0068,3.0031,3.0022,2.9985,2.9983,2.9994,2.9992,2.9975,2.9977,2.9925,2.9917,2.9955,2.9955,2.9954,0,3.0301,3.0283,3.0257,3.0243,3.023,3.0207,3.0192,3.0178,3.0161,3.0133,3.0117,3.0088,3.0064,3.0018,2.9997,2.9968,2.9964,2.9949,2.996,2.9964,2.9963,2.9964,2.9961,2.9946,2.9946,2.9946,2.9945,0,3.0268,3.0263,3.0241,3.0218,3.0199,3.0179,3.0159,3.0147,3.013,3.0111,3.0083,3.0064,3.0027,2.9997,2.9967,2.995,2.9944,2.9942,2.9936,2.9939,2.9946,2.9941,2.9988,2.9943,2.9943,2.9944,2.9944,2.9944,3.0246,3.023,3.0209,3.0185,3.0169,3.015,3.0132,3.0117,3.0094,3.0064,3.0057,3.0026,3.0001,2.9959,2.9943,2.9917,2.9919,2.9911,2.9908,2.9906,2.9905,2.9951,2.9911,2.9911,2.9911,2.9911,2.9911,0,3.0212,3.0199,3.0177,3.015,3.0131,3.013,3.0107,3.009,3.0064,3.0043,3.002,2.9986,2.9957,2.9935,2.9904,2.9888,2.9884,2.988,2.9881,2.9877,2.9906,2.9913,2.9884,2.9884,2.9884,2.9884,2.9884,2.9884,3.0192,3.0164,3.0156,3.0118,3.0104,3.0076,3.0063,3.0045,3.0028,2.9992,2.9969,2.9955,2.9932,2.99,2.9873,2.9867,2.9855,2.9852,2.9845,2.9872,2.9875,2.9878,2.9885,2.985,2.9849,2.9817,2.9817,2.9817]}]]